Terminal Aerodrome Forecast
Issued by NWS Corpus Christi, TX

Home | Current Version | Previous Version | Text Only | Print | Product List | Glossary On
Versions: 1 2 3 4 5 6 7 8 9 10 11 12 13 14 15 16 17 18 19 20 21
000
FTUS44 KCRP 250534
TAFVCT
TAF
KVCT 250534Z 2506/2606 13010KT 6SM BR BKN018
     FM250900 16004KT 5SM BR BKN007 OVC015
     FM251500 15010G16KT P6SM SCT020 BKN025
     FM252000 14015G22KT P6SM BKN035 OVC040
     FM260100 13009KT P6SM BKN015=

USA.gov is the U.S. government's official web portal to all federal, state and local government web resources and services.